Weather History for Columbus, OH

Change the Weather History Date:

Wednesday, October 16, 2013

  Actual Average Record
Temperature  
Mean Temperature 59 °F 55 °F  
Max Temperature 67 °F 65 °F 88 °F (1897)
Min Temperature 51 °F 45 °F 31 °F (1970)
Degree Days  
Heating Degree Days 6 10  
Month to date heating degree days 46 132  
Since 1 July heating degree days 99 201  
Cooling Degree Days 0 0  
Month to date cooling degree days 42 13  
Year to date cooling degree days 1179 1024  
Growing Degree Days 10 (Base 50)    
Moisture  
Dew Point 59 °F    
Average Humidity 80    
Maximum Humidity 93    
Minimum Humidity 67    
Precipitation  
Precipitation 0.22 in 0.08 in 0.98 in (1993)
Month to date precipitation 4.03 1.37  
Year to date precipitation 33.19 31.90  
Snow  
Snow 0.00 in 0.00 in - ()
Month to date snowfall 0.0 0.0  
Since 1 July snowfall 0.0 0.0  
Since 1 September snowfall 0.0 0.0  
Snow Depth 0.00 in    
Sea Level Pressure  
Sea Level Pressure 29.90 in    
Wind  
Wind Speed 7 mph (SW)    
Max Wind Speed 16 mph    
Max Gust Speed 21 mph    
Visibility 8 miles    
Events Rain    
T = Trace of Precipitation, MM = Missing Value Source: NWS Daily Summary

Daily Weather History Graph

Daily Weather History Graph

Search for Another Location

Airport:

Trip Planner

Search our weather history database for the weather conditions in past years. The results will help you decide how hot, cold, wet, or windy it might be!

Date:

Astronomy

Oct. 16, 2013 Rise Set
Actual Time 7:43 AM EDT 6:50 PM EDT
Civil Twilight 7:15 AM EDT 7:17 PM EDT
Nautical Twilight 6:44 AM EDT 7:48 PM EDT
Astronomical Twilight 6:13 AM EDT 8:20 PM EDT
Moon 5:29 PM EDT (10/16) 5:09 AM EDT (10/16)
Length of Visible Light 12h 01m
Length of Day
11h 06m
Waxing Gibbous, 94% of the Moon is Illuminated
Oct 16
Waxing Gibbous
Oct 18
Full
Oct 26
Last Quarter
Nov 3
New
Nov 10
First Quarter

Hourly Weather History & Observations

Time (EDT) Temp. Dew Point Humidity Pressure Visibility Wind Dir Wind Speed Gust Speed Precip Events Conditions
12:51 AM 66.0 °F 62.1 °F 87% 29.94 in 10.0 mi South 6.9 mph - 0.00 in   Overcast
1:51 AM 66.9 °F 61.0 °F 81% 29.94 in 10.0 mi SSW 6.9 mph - 0.00 in Rain Light Rain
2:51 AM 64.9 °F 61.0 °F 87% 29.94 in 8.0 mi SSW 5.8 mph - 0.01 in Rain Light Rain
3:51 AM 64.9 °F 61.0 °F 87% 29.91 in 10.0 mi SSW 3.5 mph - 0.01 in   Overcast
4:51 AM 64.9 °F 61.0 °F 87% 29.90 in 10.0 mi South 4.6 mph - N/A   Overcast
5:51 AM 64.0 °F 61.0 °F 90% 29.90 in 10.0 mi South 5.8 mph - N/A   Overcast
6:51 AM 64.9 °F 60.1 °F 84% 29.89 in 10.0 mi South 6.9 mph - N/A   Overcast
7:51 AM 64.9 °F 61.0 °F 87% 29.90 in 7.0 mi South 9.2 mph - 0.01 in Rain Rain
8:09 AM 64.4 °F 60.8 °F 88% 29.92 in 2.0 mi South 11.5 mph - 0.08 in Rain Heavy Rain
8:14 AM 64.4 °F 60.8 °F 88% 29.92 in 3.0 mi South 10.4 mph - 0.10 in Rain Rain
8:51 AM 64.0 °F 61.0 °F 90% 29.92 in 8.0 mi South 6.9 mph - 0.12 in   Overcast
9:21 AM 64.4 °F 60.8 °F 88% 29.92 in 8.0 mi South 5.8 mph - N/A   Overcast
9:51 AM 64.0 °F 61.0 °F 90% 29.91 in 8.0 mi SSW 6.9 mph - N/A   Overcast
10:33 AM 64.4 °F 60.8 °F 88% 29.92 in 8.0 mi SW 9.2 mph - N/A   Overcast
10:51 AM 64.0 °F 61.0 °F 90% 29.91 in 4.0 mi SSW 6.9 mph - N/A   Overcast
11:51 AM 64.9 °F 62.1 °F 90% 29.91 in 10.0 mi South 10.4 mph - N/A   Overcast
12:51 PM 66.0 °F 62.1 °F 87% 29.90 in 8.0 mi SSW 12.7 mph - N/A   Overcast
1:44 PM 66.2 °F 62.6 °F 88% 29.89 in 8.0 mi SSW 11.5 mph - N/A   Overcast
1:51 PM 66.9 °F 62.1 °F 84% 29.88 in 8.0 mi SSW 10.4 mph - N/A   Overcast
2:51 PM 66.9 °F 62.1 °F 84% 29.87 in 8.0 mi SSW 11.5 mph - 0.00 in Rain Light Rain
2:55 PM 66.2 °F 62.6 °F 88% 29.87 in 2.0 mi SW 5.8 mph - 0.01 in Rain Light Rain
2:59 PM 66.2 °F 62.6 °F 88% 29.88 in 8.0 mi WSW 11.5 mph - 0.07 in Rain Light Rain
3:18 PM 64.4 °F 60.8 °F 88% 29.88 in 8.0 mi West 11.5 mph - 0.07 in   Overcast
3:45 PM 64.4 °F 60.8 °F 88% 29.88 in 9.0 mi SW 8.1 mph - 0.07 in   Overcast
3:51 PM 64.9 °F 60.1 °F 84% 29.86 in 9.0 mi WSW 8.1 mph - 0.07 in   Overcast
4:22 PM 64.4 °F 60.8 °F 88% 29.88 in 10.0 mi WSW 8.1 mph - N/A   Overcast
4:51 PM 66.0 °F 60.1 °F 81% 29.87 in 10.0 mi WSW 6.9 mph - N/A   Overcast
5:07 PM 66.2 °F 59.0 °F 78% 29.88 in 10.0 mi WSW 9.2 mph - N/A   Overcast
5:51 PM 64.9 °F 55.9 °F 73% 29.87 in 10.0 mi West 8.1 mph - N/A   Overcast
6:51 PM 64.0 °F 55.9 °F 75% 29.88 in 10.0 mi SW 4.6 mph - N/A   Overcast
7:51 PM 64.0 °F 55.0 °F 73% 29.90 in 10.0 mi SW 5.8 mph - N/A   Overcast
8:51 PM 63.0 °F 51.1 °F 65% 29.91 in 10.0 mi West 8.1 mph - N/A   Overcast
9:51 PM 60.1 °F 51.1 °F 72% 29.93 in 10.0 mi WNW 6.9 mph - N/A   Overcast
10:51 PM 55.9 °F 48.0 °F 75% 29.94 in 10.0 mi WNW 6.9 mph - N/A   Scattered Clouds
11:51 PM 55.0 °F 46.0 °F 72% 29.95 in 10.0 mi NNW 10.4 mph - N/A   Partly Cloudy